Regional Weather Roundup
Issued by NWS

Home | Current Version | Previous Version | Text Only | Print | Product List | Glossary Off
Versions: 1 2 3 4 5 6 7 8 9 10 11 12 13 14 15 16 17 18 19 20 21 22 23 24 25 26 27 28 29 30 31 32 33 34 35 36 37 38 39 40 41 42 43 44 45 46 47 48 49 50

489
ASUS45 KABQ 291901
RWRNM
NEW MEXICO REGIONAL WEATHER ROUNDUP
NATIONAL WEATHER SERVICE ALBUQUERQUE NM
100 PM MDT WED MAR 29 2017

NOTE: "FAIR" MEANS FEW OR NO CLOUDS BELOW 12,000 FEET AGL WITH NO
       SIGNIFICANT WEATHER OR OBSTRUCTIONS TO VISION.

      THIS PRODUCT IS RELEASED AS TWO VERSIONS.  ONE VERSION NEAR
      THE TOP OF THE HOUR CONTAINING PRELIMINARY DATA FROM ALBUQUERQUE
      AND OTHER STATIONS.  A FINAL VERSION WITH ADDITIONAL DATA IS
      ISSUED ABOUT 10 MINUTES AFTER THE HOUR.

NMZ501-503-504-510>518-292000-
NORTHWEST PLATEAU/NORTHCENTRAL MOUNTAINS

CITY           SKY/WX    TMP DP  RH WIND       PRES   REMARKS
FARMINGTON     FAIR      58  25  28 SW6       29.98F
LOS ALAMOS     PTSUNNY   46  29  50 NE13G23   30.02S
SANTA FE       FAIR      53  34  48 N18G29    29.99F
TAOS             N/A     46  27  46 N21G29    30.01S
ANGEL FIRE     CLOUDY    39  26  59 N13       30.01R WCI  32

$$
NMZ402-403-502-505>509-292000-
WESTCENTRAL MOUNTAINS/SOUTHWEST MOUNTAINS

CITY           SKY/WX    TMP DP  RH WIND       PRES   REMARKS
GALLUP         FAIR      55  26  32 NE6       30.06F
GRANTS         PTSUNNY   52  33  47 N9        30.06F
SILVER CITY    FAIR      58  30  34 NE9       30.04R

$$
NMZ407-409-411-412-292000-
SOUTHERN DESERTS

CITY           SKY/WX    TMP DP  RH WIND       PRES   REMARKS
DEMING         FAIR      64  33  31 NE13G25   30.00F
LAS CRUCES     FAIR      62  34  35 NE15G22   30.00S
HOLLOMAN AFB   FAIR      59  36  41 N18       30.02S
ALAMOGORDO       N/A    N/A N/A N/A MISG        N/A
T OR C         FAIR      60  34  37 NE10G16   30.00F

$$
NMZ519>523-292000-
CENTRAL VALLEYS/CENTRAL HIGHLANDS

CITY           SKY/WX    TMP DP  RH WIND       PRES   REMARKS
ALBUQUERQUE    FAIR      57  35  43 W6        29.99F
DOUBLE EAGLE   PTSUNNY   52  36  54 NW17      30.01F
MORIARTY ARPT  FAIR      55  35  46 N23G35    30.01R
CLINES CORNERS CLOUDY    43  36  76 SE8       30.01R
BELEN          FAIR      57  38  50 NW13G20   30.01F
SOCORRO        PTSUNNY   58  37  43 N13       30.01S

$$
NMZ524>526-539-540-292000-
SOUTHCENTRAL MOUNTAINS

CITY           SKY/WX    TMP DP  RH WIND       PRES   REMARKS
RUIDOSO        NOT AVBL

$$
NMZ527>531-292000-
NORTHEAST HIGHLANDS/NORTHEAST PLAINS

CITY           SKY/WX    TMP DP  RH WIND       PRES   REMARKS
LAS VEGAS      CLOUDY    48  28  46 NE20G28   29.98S
RATON          CLOUDY    43  30  60 N18G32    29.96R
CLAYTON        CLOUDY    44  37  76 N32G43    29.93R

$$
NMZ532>537-292000-
EASTCENTRAL PLAINS

CITY           SKY/WX    TMP DP  RH WIND       PRES   REMARKS
TUCUMCARI      LGT RAIN  47  41  80 N17       29.95F
CANNON AFB     CLOUDY    46  46 100 N28       29.94R
CLOVIS AIRPORT CLOUDY    48  37  66 N36G41    29.94R

$$
NMZ028-029-538-292000-
SOUTHEAST PLAINS

CITY           SKY/WX    TMP DP  RH WIND       PRES   REMARKS
ROSWELL        LGT RAIN  50  40  68 N17       30.04
ARTESIA        FAIR      50  39  66 N25G33    30.03R
CARLSBAD       CLOUDY    56  38  50 N31G40    30.00R
HOBBS          PTSUNNY   48  39  71 NW21G26   29.96R


$$




USA.gov is the U.S. government's official web portal to all federal, state and local government web resources and services.